LiveATC.Net - Listen to live air traffic control over the Internet!


ICAO: KOGD  IATA: OGD   Airport: Ogden-Hinckley Airport
City: Ogden   State/Province: Utah
Country: United States   Continent: North America
KOGD METAR Weather: KOGD 190853Z AUTO 33006KT 10SM CLR 11/03 A2984 RMK AO2 SLP060 T01110033 53011
KOGD Flight Activity (FlightAware)
KOGD Airport Info   (iFlightPlanner)
KOGD VFR Sectional Chart   (iFlightPlanner) 
KOGD IFR Low Chart   (iFlightPlanner) 

KOGD Ogden Ground/Tower
Feed Status: DOWN
Last heard on: 2019-09-18 06:42:05 (1 days 3 hours 1 minutes ago)
KOGD Ogden Ground/Tower Audio Archives
FacilityFrequency
Ogden Ground121.700
Ogden Tower118.700

NOTICE

Unauthorized use prohibited. See LiveATC.net Terms of Service


Airport/ARTCC Code
Frequency Search
(e.g., 124.400, 128.75)
Site-wide search
 


Browse LiveATC Feeds
Top 50 LiveATC Feeds
LiveATC Feed Map
Bad Weather Areas

LiveATC FAQ
Offer LiveATC feed
Contact LiveATC.net
Press Inquiries

LiveATC on iPhone
LiveATC on Android

Windows Phone
Windows 8/10

LiveATC Mobile
(Mobile browser)

ATC Audio Archives
Interesting Recordings

LiveATC Forums


Home Page
About LiveATC.net
Make a Donation
Terms of Use
Privacy Policy

Canadian Air Freqs

AIRMETs/SIGMETs

FAA Airport Status
Nat'l Airspace Status
Arrival Demand Charts


Server Software By:
Icecast.org
Liquidsoap